Regional Weather Roundup
Issued by NWS

Home | Current Version | Previous Version | Graphics & Text | Print | Product List | Glossary On
Versions: 1 2 3 4 5 6 7 8 9 10 11 12 13 14 15 16 17 18 19 20 21 22 23 24 25 26 27 28 29 30 31 32 33 34 35 36 37 38 39 40 41 42 43 44 45 46 47 48 49 50
284
ASUS43 KIND 260509
RWRIN

WEATHER ROUNDUP FOR INDIANA
NATIONAL WEATHER SERVICE INDIANAPOLIS IN
100 AM EDT THU APR 26 2018

NOTE: "FAIR" INDICATES FEW OR NO CLOUDS BELOW 12,000 FEET WITH NO
SIGNIFICANT WEATHER AND/OR OBSTRUCTIONS TO VISIBILITY.

* - STATION DOES NOT REPORT WEATHER SUCH AS PRECIPITATION OR FOG.

+ - STATION NOT QUALITY CONTROLLED BY THE NATIONAL WEATHER SERVICE.
    USE DATA WITH CAUTION...ESPECIALLY DEWPOINT AND RELATIVE
    HUMIDITY OBSERVATIONS.

INZ001>003-010>013-019-020-260600-
NORTHWEST INDIANA

CITY           SKY/WX    TMP DP  RH WIND       PRES   REMARKS
GARY /AIRPORT/ FAIR      33  32  94 CALM      30.01F
KNOX *+        FAIR      32  30  93 W5        29.99S WCI  27
LA PORTE +     FAIR      37  31  78 NW5       29.99S WCI  34
MICHIGAN CITY+ FAIR      34  34 100 CALM      29.99F
MONTICELLO +   FAIR      34  28  77 NW5       29.99S WCI  30
RENSSELAER +   FAIR      34  28  80 N3        29.99F
VALPARAISO     FAIR      39  31  72 N5        29.99F WCI  36

$$

LMZ046-743>745-260600-
SOUTHERN LAKE MICHIGAN

STATION/POSITION TIME  TEMP    WIND        PRES    WAVE
                       AIR SEA DIR/SP/G            HT
                 (UTC) (F)     (DEG/KT/KT) (MB)    (FT)
BURNS HARBOR     0440   40     320/  5/  7 1016.6F
MICHIGAN CITY    0440   38     280/  9/  9   N/A

$$

INZ004-005-014>016-021>024-260600-
NORTH CENTRAL INDIANA

CITY           SKY/WX    TMP DP  RH WIND       PRES   REMARKS
GOSHEN         FAIR      37  30  75 NW6       29.96F WCI  32
LOGANSPORT +   FAIR      37  30  75 NW5       29.99S WCI  34
PERU/GRISSOM   FAIR      40  31  70 NW8       29.96F WCI  34
ROCHESTER +    FAIR      37  32  81 NW5       29.97F WCI  34
SOUTH BEND     FAIR      35  28  75 NW3       29.98F
WARSAW +       FAIR      36  30  80 NW3       29.97S

$$

INZ006>009-017-018-025>027-260600-
NORTHEAST INDIANA

CITY           SKY/WX    TMP DP  RH WIND       PRES   REMARKS
ANGOLA *+      FAIR      39  32  75 NW3       29.95R
AUBURN +       FAIR      37  32  81 NW5       29.95F WCI  34
FORT WAYNE     FAIR      41  31  67 NW6       29.95S
HUNTINGTON +   FAIR      39  28  63 NW3       29.95F
KENDALLVILLE + FAIR      39  28  65 NW3       29.95S

$$

INZ028-029-035-036-043>045-051>053-260600-
WEST CENTRAL INDIANA

CITY           SKY/WX    TMP DP  RH WIND       PRES   REMARKS
CRAWFORDSVL +  FAIR      40  32  73 N6        29.98F WCI  36
GREENCASTLE +  FAIR      43  30  61 CALM      29.98F
LAFAYETTE      FAIR      39  31  72 N3        29.99F
TERRE HAUTE    FAIR      46  34  62 NE5       29.98S

$$

INZ030>032-037>040-046>048-054>057-064-065-260600-
CENTRAL INDIANA

CITY           SKY/WX    TMP DP  RH WIND       PRES   REMARKS
FRANKFORT +    FAIR      42  32  68 N6        29.99F
GREENWOOD *+   FAIR      45  29  55 N7        29.97F
INDIANAPOLIS   FAIR      45  28  51 N7        29.97S
-EAGLE CREEK   FAIR      46  28  49 N7        29.96F
KOKOMO +       FAIR      39  30  70 NW6       29.97F WCI  35
MARION +       FAIR      37  30  78 CALM      29.97F
MT COMFORT *+  FAIR      39  34  81 N7        29.97F WCI  34
SHELBYVILLE    FAIR      45  32  60 N9        29.95F
ZIONSVILLE +   FAIR      40  30  67 NW5       29.97F WCI  37

$$

INZ033-034-041-042-049-050-058-059-260600-
EAST CENTRAL INDIANA

CITY           SKY/WX    TMP DP  RH WIND       PRES   REMARKS
MUNCIE         FAIR      42  31  64 W5        29.96F
RICHMOND +     FAIR      43  32  65 N8        29.95S

$$

INZ060-061-067>069-081>083-085>088-260600-
SOUTHWEST INDIANA

CITY           SKY/WX    TMP DP  RH WIND       PRES   REMARKS
EVANSVILLE     FAIR      59  50  72 NE3       29.92F
HUNTINGBURG +  FAIR      54  49  83 N8        29.94S
WASHINGTON +   FAIR      52  38  58 N6        29.96R

$$

INZ062-063-066-070>080-084-089>092-260600-
SOUTH CENTRAL AND SOUTHEAST INDIANA

CITY           SKY/WX    TMP DP  RH WIND       PRES   REMARKS
BATESVILLE +   CLOUDY    46  32  57 MISG      29.95S
BEDFORD +      FAIR      54  32  43 N9        29.95S
BLOOMINGTON    FAIR      49  33  54 N5        29.96F
FRENCH LICK *+ FAIR      54  34  47 CALM      29.95S
MADISON *+     FAIR      52  34  50 N6        29.96F
NORTH VERNON + FAIR      48  34  57 N7        29.97R
SEYMOUR +      FAIR      52  34  50 N14       29.96S

$$





USA.gov is the U.S. government's official web portal to all federal, state and local government web resources and services.